Flag for Germany Weather past 2 weeks in Pirmasens, Rhineland-Palatinate, Germany

Now
34 °F

Light freezing rain. Mostly cloudy.


Feels Like: 30 °F
Forecast: 26 / 32 °F
Wind: 5 mph from Southwest

Location: Ramstein

Current Time: Feb 1, 2015 at 11:05:02 PM

Latest Report: Feb 1, 2015 at 9:58 PM


Visibility: N/A

Pressure: 29.40 "Hg

Humidity: 91%

Dew point: 31 °F

Location of PirmasensLocation

Historic Weather in Pirmasens — Graph

°F

Pirmasens temperature yesterday

Maximum temperature yesterday: 36 °F (at 12:58 PM)
Minimum temperature yesterday: 32 °F (at 12:01 AM)
Average temperature yesterday: 33 °F

Past Weeks' High & Low Weather Summary

 TemperatureHumidityPressure
High41 °F (Jan 28, 10:02 PM)100% (Jan 18, 6:58 PM)30.48 "Hg (Jan 18, 6:58 PM)
Low21 °F (Jan 21, 12:58 AM)65% (Jan 18, 1:58 PM)28.72 "Hg (Jan 30, 2:03 AM)
Average33 °F89%29.80 "Hg
* Reported Jan 17 8:58 PM — Feb 1 8:58 PM, Pirmasens, Weather by CustomWeather, © 2014

Note: Actual official high and low records may vary slightly from our data, if they occured in-between our weather recording intervals... More about our weather records

Advertising

Pirmasens weather history for previous 24 hours

 ConditionsComfort  
Time TempWeatherWind HumidityBarometerVisibility
8:58 PM
Feb 1
34 °FLight rain. Overcast.5 mph93%29.39 "HgN/A
7:58 PM34 °FLight snow. Fog.3 mph87%29.39 "Hg3 mi
6:58 PM35 °FOvercast.8 mph84%29.39 "HgN/A
5:58 PM34 °FOvercast.8 mph87%29.38 "HgN/A
5:01 PM34 °FMostly cloudy.9 mph93%29.33 "HgN/A
3:58 PM36 °FMostly cloudy.9 mph81%29.36 "HgN/A
3:02 PM36 °FPartly sunny.10 mph87%29.30 "HgN/A
2:58 PM36 °FPartly sunny.10 mph87%29.34 "HgN/A
1:58 PM36 °FPartly sunny.10 mph87%29.33 "HgN/A
1:04 PM34 °FMore clouds than sun.10 mph93%29.29 "HgN/A
12:58 PM35 °FMostly cloudy.9 mph87%29.32 "HgN/A
12:04 PM34 °FLight snow. Fog.6 mph93%29.27 "Hg4 mi
11:58 AM34 °FLight snow. Fog.6 mph85%29.31 "Hg3 mi
10:58 AM34 °FMore clouds than sun.5 mph87%29.30 "HgN/A
9:58 AM33 °FBroken clouds.5 mph87%29.28 "HgN/A
8:58 AM32 °FSunny.6 mph87%29.27 "HgN/A
7:58 AM33 °FMostly cloudy.3 mph89%29.25 "HgN/A
6:58 AM32 °FOvercast.5 mph93%29.23 "HgN/A
6:01 AM32 °FLight snow. Ice fog.7 mph100%29.17 "Hg4 mi
4:58 AM33 °FLight rain. Mostly cloudy.6 mph92%29.19 "HgN/A
3:58 AM34 °FLight rain. Overcast.7 mph87%29.17 "HgN/A
3:04 AM32 °FMostly cloudy.8 mph100%29.12 "HgN/A
2:58 AM34 °FOvercast.8 mph87%29.16 "HgN/A
2:03 AM32 °FLight snow. Overcast.6 mph100%29.10 "HgN/A
12:58 AM34 °FLight snow. Fog.3 mph93%29.14 "Hg6 mi
11:58 PM
Jan 31
34 °FLight snow. Fog.3 mph93%29.15 "Hg3 mi
11:02 PM32 °FLight snow. Overcast.5 mph100%29.11 "HgN/A
Weather by CustomWeather, © 2014

See weather overviewHow to use our weather pages